Weather Roundup
Issued by NWS

Home | Current Version | Previous Version | Graphics & Text | Print | Product List | Glossary Off
Versions: 1 2 3 4 5 6 7 8 9 10 11 12 13 14 15 16 17 18 19 20 21 22 23 24 25 26 27 28 29 30 31 32 33 34 35 36 37 38 39 40 41 42 43 44 45 46 47 48 49 50

000
NZUS93 KARX 010310
HRRWXR

CURRENT HOURLY OBSERVATIONS ACROSS
MUCH OF THE UPPER MISSISSIPPI VALLEY
NATIONAL WEATHER SERVICE LA CROSSE WI
1000 PM CDT MON AUG 31 2015


...SOUTHEAST MINNESOTA...


CITY           SKY/WX    TMP DP  RH WIND       PRES   REMARKS
ROCHESTER      PTCLDY    73  71  93 S6        29.97R FOG
ROCHESTER/MAYO FAIR      75  73  95 SE7       29.96S
WINONA         PTCLDY    73  72  94 CALM      29.95S
AUSTIN         PTCLDY    73  70  88 CALM      29.96R
ALBERT LEA     CLEAR     73  70  88 CALM      29.95S
DODGE CENTER   CLEAR     72  70  94 S6        29.96S FOG
PRESTON        PTCLDY    73  70  89 S6        29.98S
OWATONNA       CLEAR     73  70  88 S7        29.94S
FARIBAULT      CLEAR     73  70  88 S5        29.93S
$$

...ELSEWHERE IN MINNESOTA...


CITY           SKY/WX    TMP DP  RH WIND       PRES   REMARKS
MINNEAPOLIS    MOCLDY    79  70  74 S7        29.90S
INTNL FALLS    CLOUDY    67  65  93 W5        29.83R
DULUTH         PTCLDY    73  68  84 SW9       29.89S
RED WING       CLEAR     77  72  83 SE3       29.92R
REDWOOD FALLS  CLEAR     73  68  84 S8        29.89R
MANKATO        CLEAR     73  68  83 S7        29.92S
WORTHINGTON    CLEAR     70  64  83 S6        29.93R
FAIRMONT       CLEAR     68  61  77 S6        29.93R
$$

...SOUTHWEST WISCONSIN...


CITY           SKY/WX    TMP DP  RH WIND       PRES   REMARKS
LA CROSSE      CLEAR     74  70  87 S3        29.96R
PRAIRIE DU CHI CLEAR     73  69  86 CALM      29.98R
BOSCOBEL       CLEAR     72  69  90 CALM      29.98S
LONE ROCK      CLEAR     70  67  90 E5        30.00S
PLATTEVILLE    CLEAR     73  70  91 SE7       30.01S
FORT MC COY    CLEAR     68  66  92 CALM      29.98S
CAMP DOUGLAS   PTCLDY    70  70 100 SE3       29.99R
VIROQUA          N/A     72  72  99 SE6       30.01R
WIS DELLS      CLEAR     69  65  90 S7        30.00S
$$

...ELSEWHERE IN WISCONSIN...


CITY           SKY/WX    TMP DP  RH WIND       PRES   REMARKS
MILWAUKEE      PTCLDY    70  65  84 S6        30.03S
MADISON        CLEAR     70  67  90 CALM      30.01S
GREEN BAY      CLEAR     69  67  93 S5        30.00R FOG
EAU CLAIRE     CLEAR     74  69  85 S7        29.94R
BLACK RVR FLS  FOG       67  67 100 CALM      29.97R VSB 1/4
MEDFORD        CLEAR     67  66  97 S6        30.00R
WAUSAU         CLEAR     70  67  90 S5        29.98S
WIS RAPIDS     LGT RAIN  71  66  84 S5        30.01R
MARSHFIELD     CLEAR     68  65  90 S6        30.00R FOG
RICE LAKE      MOCLDY    72  69  90 SE5       29.95S
$$

...NORTHEAST IOWA...


CITY           SKY/WX    TMP DP  RH WIND       PRES   REMARKS
DECORAH        MOCLDY    73  72  94 S6        29.97S
MASON CITY     PTCLDY    70  69  97 S3        29.97R FOG
CHARLES CITY   MOCLDY    75  75 100 SE8       29.97R
OELWEIN        MOCLDY    73  73 100 SE6       29.99R FOG
$$

...ELSEWHERE IN IOWA...


CITY           SKY/WX    TMP DP  RH WIND       PRES   REMARKS
DES MOINES     PTCLDY    77  71  82 S6        29.95R
IOWA CITY      PTCLDY    75  72  90 SE5       29.98R
FORT DODGE     CLEAR     70  64  83 CALM      29.96S
$$

...NORTHERN ILLINOIS...


CITY           SKY/WX    TMP DP  RH WIND       PRES   REMARKS
CHICAGO-OHARE  CLEAR     73  67  81 SE6       30.04R
CHICAGO-MIDWAY CLEAR     78  68  71 CALM      30.04R
MOLINE         CLEAR     76  71  85 SE6       29.99R
ROCKFORD       CLEAR     73  68  84 CALM      30.04R
PEORIA         PTCLDY    80  70  71 S8        30.03R
$$

NOTE: "FAIR" INDICATES FEW OR NO CLOUDS BELOW 12,000 FEET WITH NO
SIGNIFICANT WEATHER AND/OR OBSTRUCTIONS TO VISIBILITY. WIND
SPEEDS ARE IN MILES-PER-HOUR.



USA.gov is the U.S. government's official web portal to all federal, state and local government web resources and services.